| time (UTC) | temp F | wind direction | speed MPH | gust MPH | rain 1hr in | rain 24hr in | rain mn in | humidity % | barometer mb |
| 20260508130329 | 37 | 143 | 0.0 | 2.0 | 0.00 | 0.00 | 0.00 | 62 | 1025.0 |
| 20260508124822 | 37 | 144 | 0.0 | 0.0 | 0.00 | 0.00 | 0.00 | 58 | 1024.9 |
| 20260508123339 | 38 | 143 | 0.0 | 3.0 | 0.00 | 0.00 | 0.00 | 56 | 1024.8 |
| 20260508121838 | 39 | 143 | 0.0 | 3.0 | 0.00 | 0.00 | 0.00 | 54 | 1024.5 |
| 20260508120353 | 40 | 143 | 1.0 | 2.0 | 0.00 | 0.00 | 0.00 | 50 | 1024.4 |
| 20260508114826 | 42 | 143 | 1.0 | 3.0 | 0.00 | 0.00 | 0.00 | 46 | 1024.5 |
| 20260508113322 | 44 | 144 | 1.0 | 5.0 | 0.00 | 0.00 | 0.00 | 41 | 1024.6 |
| 20260508111819 | 43 | 50 | 1.0 | 9.0 | 0.00 | 0.00 | 0.00 | 42 | 1024.5 |
| 20260508110332 | 43 | 127 | 1.0 | 9.0 | 0.00 | 0.00 | 0.00 | 40 | 1024.4 |
| 20260508104825 | 41 | 163 | 0.0 | 6.0 | 0.00 | 0.00 | 0.00 | 42 | 1024.6 |
| 20260508103321 | 40 | 196 | 1.0 | 4.0 | 0.00 | 0.00 | 0.00 | 48 | 1024.5 |
| 20260508101835 | 40 | 196 | 1.0 | 3.0 | 0.00 | 0.00 | 0.00 | 46 | 1024.6 |
| 20260508100328 | 42 | 196 | 0.0 | 3.0 | 0.00 | 0.00 | 0.00 | 43 | 1024.5 |
| 20260508094820 | 40 | 202 | 4.0 | 8.0 | 0.00 | 0.00 | 0.00 | 44 | 1024.6 |
| 20260508093316 | 39 | 219 | 0.0 | 4.0 | 0.00 | 0.00 | 0.00 | 45 | 1024.6 |
| 20260508091829 | 40 | 218 | 1.0 | 2.0 | 0.00 | 0.00 | 0.00 | 45 | 1024.6 |
| 20260508090323 | 41 | 219 | 1.0 | 4.0 | 0.00 | 0.00 | 0.00 | 45 | 1024.8 |
| 20260508084817 | 43 | 219 | 1.0 | 5.0 | 0.00 | 0.00 | 0.00 | 42 | 1024.8 |
| 20260508083332 | 40 | 174 | 4.0 | 9.0 | 0.00 | 0.00 | 0.00 | 44 | 1024.9 |
| 20260508081845 | 39 | 170 | 1.0 | 4.0 | 0.00 | 0.00 | 0.00 | 46 | 1024.8 |
| 20260508080340 | 38 | 170 | 1.0 | 6.0 | 0.00 | 0.00 | 0.00 | 49 | 1025.0 |
| 20260508074830 | 38 | 171 | 1.0 | 5.0 | 0.00 | 0.00 | 0.00 | 51 | 1024.9 |
| 20260508073347 | 38 | 170 | 2.0 | 4.0 | 0.00 | 0.00 | 0.00 | 50 | 1025.2 |
| 20260508071840 | 38 | 171 | 0.0 | 4.0 | 0.00 | 0.00 | 0.00 | 49 | 1025.4 |
| 20260508070337 | 38 | 170 | 1.0 | 7.0 | 0.00 | 0.00 | 0.00 | 47 | 1025.6 |
| 20260508064851 | 39 | 265 | 1.0 | 4.0 | 0.00 | 0.00 | 0.00 | 49 | 1025.6 |
| 20260508063346 | 39 | 265 | 0.0 | 4.0 | 0.00 | 0.00 | 0.00 | 45 | 1025.6 |
| 20260508061818 | 39 | 265 | 0.0 | 3.0 | 0.00 | 0.00 | 0.00 | 45 | 1025.5 |
| 20260508060312 | 38 | 265 | 0.0 | 4.0 | 0.00 | 0.00 | 0.00 | 44 | 1025.6 |
| 20260508054825 | 36 | 265 | 0.0 | 6.0 | 0.00 | 0.00 | 0.00 | 47 | 1025.5 |
| 20260508053320 | 36 | 266 | 0.0 | 4.0 | 0.00 | 0.00 | 0.00 | 46 | 1025.5 |
| 20260508051833 | 36 | 266 | 0.0 | 3.0 | 0.00 | 0.00 | 0.00 | 44 | 1025.6 |
| 20260508050320 | 37 | 266 | 0.0 | 3.0 | 0.00 | 0.00 | 0.00 | 43 | 1025.8 |
| 20260508044842 | 38 | 266 | 2.0 | 3.0 | 0.00 | 0.00 | 0.00 | 42 | 1025.8 |
| 20260508043336 | 39 | 266 | 0.0 | 0.0 | 0.00 | 0.00 | 0.00 | 39 | 1025.8 |
| 20260508041850 | 40 | 266 | 0.0 | 0.0 | 0.00 | 0.00 | 0.00 | 36 | 1025.8 |
| 20260508040343 | 40 | 266 | 0.0 | 2.0 | 0.00 | 0.00 | 0.00 | 31 | 1025.8 |
| 20260508034837 | 41 | 266 | 0.0 | 2.0 | 0.00 | 0.00 | 0.00 | 34 | 1025.9 |
| 20260508033332 | 42 | 266 | 0.0 | 0.0 | 0.00 | 0.00 | 0.00 | 29 | 1025.6 |
| 20260508031844 | 44 | 266 | 0.0 | 2.0 | 0.00 | 0.00 | 0.00 | 26 | 1025.5 |
| 20260508030317 | 47 | 266 | 0.0 | 3.0 | 0.00 | 0.00 | 0.00 | 25 | 1025.4 |
| 20260508024811 | 50 | 266 | 0.0 | 0.0 | 0.00 | 0.00 | 0.00 | 19 | 1025.2 |
| 20260508023326 | 52 | 266 | 0.0 | 8.0 | 0.00 | 0.00 | 0.00 | 15 | 1025.3 |
| 20260508021841 | 54 | 264 | 1.0 | 7.0 | 0.00 | 0.00 | 0.00 | 13 | 1024.8 |
| 20260508020314 | 55 | 280 | 3.0 | 10.0 | 0.00 | 0.00 | 0.00 | 12 | 1024.8 |
| 20260508014828 | 56 | 263 | 1.0 | 10.0 | 0.00 | 0.00 | 0.00 | 12 | 1024.7 |
| 20260508013324 | 58 | 286 | 4.0 | 10.0 | 0.00 | 0.00 | 0.00 | 11 | 1024.6 |
| 20260508011816 | 59 | 280 | 5.0 | 11.0 | 0.00 | 0.00 | 0.00 | 9 | 1024.7 |
| 20260508010314 | 62 | 267 | 3.0 | 9.0 | 0.00 | 0.00 | 0.00 | 9 | 1024.6 |
| 20260508004828 | 63 | 259 | 4.0 | 12.0 | 0.00 | 0.00 | 0.00 | 9 | 1024.5 |
| 20260508003324 | 64 | 12 | 4.0 | 10.0 | 0.00 | 0.00 | 0.00 | 10 | 1024.7 |
| 20260508001838 | 66 | 193 | 5.0 | 14.0 | 0.00 | 0.00 | 0.00 | 10 | 1024.6 |
| 20260508000327 | 65 | 291 | 6.0 | 12.0 | 0.00 | 0.00 | 0.00 | 11 | 1024.7 |
| 20260507234819 | 66 | 295 | 5.0 | 11.0 | 0.00 | 0.00 | 0.00 | 11 | 1024.9 |
| 20260507233314 | 66 | 239 | 5.0 | 11.0 | 0.00 | 0.00 | 0.00 | 10 | 1024.9 |
| 20260507231834 | 66 | 252 | 4.0 | 9.0 | 0.00 | 0.00 | 0.00 | 12 | 1024.7 |
| 20260507230327 | 66 | 206 | 4.0 | 14.0 | 0.00 | 0.00 | 0.00 | 11 | 1024.9 |
| 20260507224820 | 65 | 269 | 6.0 | 12.0 | 0.00 | 0.00 | 0.00 | 11 | 1025.1 |
| 20260507223336 | 66 | 251 | 4.0 | 13.0 | 0.00 | 0.00 | 0.00 | 11 | 1025.2 |
| 20260507221822 | 67 | 280 | 2.0 | 9.0 | 0.00 | 0.00 | 0.00 | 12 | 1025.2 |
| 20260507220317 | 66 | 249 | 5.0 | 13.0 | 0.00 | 0.00 | 0.00 | 12 | 1025.3 |
| 20260507214830 | 65 | 244 | 3.0 | 11.0 | 0.00 | 0.00 | 0.00 | 9 | 1025.5 |
| 20260507213325 | 65 | 173 | 7.0 | 15.0 | 0.00 | 0.00 | 0.00 | 12 | 1025.7 |
| 20260507211818 | 65 | 166 | 5.0 | 13.0 | 0.00 | 0.00 | 0.00 | 13 | 1026.0 |
| 20260507210331 | 65 | 263 | 5.0 | 11.0 | 0.00 | 0.00 | 0.00 | 10 | 1026.1 |
| 20260507204824 | 64 | 309 | 2.0 | 16.0 | 0.00 | 0.00 | 0.00 | 13 | 1026.3 |
| 20260507203318 | 63 | 182 | 4.0 | 11.0 | 0.00 | 0.00 | 0.00 | 14 | 1026.4 |
| 20260507201830 | 63 | 185 | 4.0 | 9.0 | 0.00 | 0.00 | 0.00 | 14 | 1026.5 |
| 20260507200324 | 61 | 276 | 4.0 | 12.0 | 0.00 | 0.00 | 0.00 | 13 | 1026.6 |
| 20260507194818 | 61 | 266 | 4.0 | 10.0 | 0.00 | 0.00 | 0.00 | 14 | 1026.9 |
| 20260507193314 | 61 | 187 | 4.0 | 12.0 | 0.00 | 0.00 | 0.00 | 17 | 1026.9 |
| 20260507191848 | 60 | 243 | 4.0 | 11.0 | 0.00 | 0.01 | 0.00 | 19 | 1027.0 |
| 20260507190320 | 59 | 260 | 4.0 | 12.0 | 0.00 | 0.01 | 0.00 | 24 | 1026.9 |
| 20260507184813 | 58 | 204 | 5.0 | 10.0 | 0.00 | 0.01 | 0.00 | 19 | 1027.0 |
| 20260507183329 | 57 | 285 | 1.0 | 10.0 | 0.00 | 0.01 | 0.00 | 18 | 1027.0 |
| 20260507181843 | 57 | 204 | 7.0 | 11.0 | 0.00 | 0.02 | 0.00 | 19 | 1027.1 |
| 20260507180315 | 56 | 179 | 3.0 | 10.0 | 0.00 | 0.02 | 0.00 | 21 | 1027.2 |
| 20260507174825 | 56 | 233 | 6.0 | 10.0 | 0.00 | 0.02 | 0.00 | 21 | 1027.3 |
| 20260507173325 | 55 | 226 | 5.0 | 7.0 | 0.00 | 0.02 | 0.00 | 22 | 1027.6 |
| 20260507171817 | 53 | 173 | 2.0 | 12.0 | 0.00 | 0.04 | 0.00 | 26 | 1027.7 |
| 20260507170355 | 52 | 149 | 5.0 | 10.0 | 0.00 | 0.04 | 0.00 | 27 | 1027.7 |
| 20260507164832 | 51 | 179 | 5.0 | 9.0 | 0.00 | 0.04 | 0.00 | 30 | 1027.7 |
| 20260507163320 | 49 | 174 | 4.0 | 10.0 | 0.00 | 0.04 | 0.00 | 30 | 1027.8 |
| 20260507161820 | 48 | 183 | 3.0 | 10.0 | 0.00 | 0.08 | 0.00 | 29 | 1027.8 |
| 20260507160334 | 47 | 213 | 2.0 | 8.0 | 0.00 | 0.08 | 0.00 | 31 | 1027.7 |
| 20260507154826 | 46 | 192 | 2.0 | 5.0 | 0.00 | 0.08 | 0.00 | 31 | 1027.5 |
| 20260507153314 | 45 | 181 | 3.0 | 8.0 | 0.00 | 0.08 | 0.00 | 35 | 1027.6 |
| 20260507151827 | 43 | 194 | 4.0 | 9.0 | 0.00 | 0.13 | 0.00 | 35 | 1027.5 |
| 20260507150322 | 42 | 220 | 2.0 | 7.0 | 0.00 | 0.13 | 0.00 | 38 | 1027.7 |
| 20260507144814 | 40 | 197 | 1.0 | 5.0 | 0.00 | 0.13 | 0.00 | 36 | 1027.6 |
| 20260507143330 | 35 | 54 | 0.0 | 3.0 | 0.00 | 0.13 | 0.00 | 45 | 1027.3 |
| 20260507141822 | 29 | 54 | 0.0 | 0.0 | 0.00 | 0.13 | 0.00 | 66 | 1027.3 |
| 20260507140316 | 26 | 54 | 0.0 | 0.0 | 0.00 | 0.13 | 0.00 | 77 | 1027.2 |
| 20260507134831 | 24 | 54 | 0.0 | 0.0 | 0.00 | 0.13 | 0.00 | 80 | 1027.2 |
| 20260507133326 | 23 | 54 | 0.0 | 0.0 | 0.00 | 0.13 | 0.00 | 79 | 1027.2 |
| 20260507131813 | 23 | 54 | 0.0 | 0.0 | 0.00 | 0.13 | 0.00 | 77 | 1027.2 |